Location: *
(43.0833°N, 13.0500°E)
Time: 05:17:35
(UTC+00:00)

COSMO-SKYMED 1 - Pass Details

Date: 15 November 2019
Orbit: 621 x 623 km, 97.9° (Epoch: 12 December)

Event Time Altitude Azimuth Distance (km) Brightness Sun altitude
Exits shadow 17:57:18 - 2° (N) 2,659 5.8 -24.3°
Reaches altitude 10° 17:59:01 10° 355° (N) 2,001 5.2 -24.6°
Maximum altitude 18:02:56 34° 291° (WNW) 1,031 4.2 -25.3°
Drops below altitude 10° 18:06:50 10° 226° (SW) 1,987 5.7 -26.0°
Sets 18:09:09 0° 217° (SW) 2,888 6.5 -26.4°
